COSMOS 2251 DEB, 34388

Orbit data source: Space-Track

COSMOS 2251 DEB, 34388 is space debris in LEO originally from a launch on Wed, 16 Jun 1993 UTC launched from the Plesetsk Missile And Space Complex (PKMTR). The debris from Iridium 33, an American commercial communications satellite, has been tracked extensively since its accidental collision with the defunct Russian satellite Cosmos 2251 in 2009. This event, occurring at high speed in low Earth orbit (LEO), generated thousands of pieces of space debris, significantly increasing the risk of further collisions. The Iridium 33 debris cloud has impacted space traffic management and orbital debris mitigation strategies, making it a subject of ongoing study in space situational awareness.

Loading next visibility...
Identifier
34388, 1993-036QD
Orbit
LEO
Country
Flag of CISCIS
Related business
Manufacturer
Unknown
Mission
Spacecraft
Bus & Motor
Unknown
Mass
Unknown
Launch date (UTC)
1993-06-16 (33 years ago)
Launch vehicle
Unknown
Launch site
Plesetsk Missile And Space Complex (PKMTR)
Object type
Payload
Rocket body
Debris
Shape & HBR
Unknown shape, 0.1 m
Radar Cross Section
Small (<0.1 m²)

Expand to show TLE details & history
Last TLE update: 12 hours ago

TLE from 12 hours ago
0 COSMOS 2251 DEB
1 34388U 93036QD  26121.95297308  .00002090  00000-0  54395-3 0  9992
2 34388  74.0389 319.9392 0012030 337.9325 146.6681 14.50197781901873
Epoch: 2026-05-01T22:52Z
TLE epoch observation values (Epoch: 2026-05-01T22:52:16.874Z)
Latitude
52.35774°
Longitude
-84.65324°
Altitude
740.302 km
Speed
7.486 km/s
True Right ascension
07h 53m 10s
True Declination
52° 11' 27"
Sunlit
Object was in daylight at epoch
Visualization orbit readout
Latitude
Unknown
Longitude
Unknown
Altitude
Unknown
Speed
Unknown
Apparent Right ascension
Unknown
Apparent Declination
Unknown
Sunlit
N/A
Visualization observer readout
Local Sidereal Time
18:51:56
Azimuth
Unknown
Elevation
Unknown
Doppler factor
Unknown
Orbital elements
Apogee altitude
731.153 km
Perigee altitude
714.068 km
Semi-major axis
7,100.748 km
Eccentricity
0.0012
Inclination
74.0389°
RAAN
319.9392°
Arg. of periapsis
337.9325°
True anomaly
146.74375°
Mean anomaly
146.6681°
Eccentric anomaly
146.70594°
Mean motion
3.62733 °/min
Orbital period
99.25 mins
BSTAR
0.00054395
Loading maneuver chart data...
Computing Atmospheric mass density...
Loading historical data...
Loading historical data...
Loading historical data...
Loading historical data...
Loading historical data...
Loading historical data...
Loading historical data...

Documentation

Showing up to 5 results
|